DRAGON CRS-14 DEB (43268 NORAD) Tracking and Keplerian Element Data

This shows tracking and keplerian element data for the satellite.

Feedback or suggestion? Click here.




ElementValue
Catalog43268
NameDRAGON CRS-14 DEB
Epoch Orbit70
Epoch Day97.1981942
Epoch Year2018
RAAN10.9383
Inclination51.6443
Eccentricity0.0032778
Argument of Perigee64.0375
Mean Anonmoly296.6118
Mean Motion16.3011965
Decay Rate0.08467237
L11 43268U 18032B 18097.19819420 .08467237 12317-4 14883-2 0 9997
L22 43268 51.6443 10.9383 0032778 64.0375 296.6118 16.30119650 706



Live tracking and technical data element details for DRAGON CRS-14 DEB (NORAD 43268). DRAGON CRS-14 DEB can be tracked NOW for your location showing map with azimuth and elevation plus other details from your city location.







IsCatalogInMostPopularTable: catalog: 43268, numindb: 402
Update: records affected: 1



GetName: 43268 DRAGON CRS-14 DEB

Hit Count: updated at: Sat, 24 May 2025 15:47:33 GMT